Погода в Сержи

Франция     49°02′59″N   2°02′41″E
темп.,
°C
ветер,
м/с
пор.,
м/с
влажн.,
%
обл.,
%
осадки,
мм/ч
давл.,
гПа
погр.,
м
13 мая, чт
чт1323:00+10юв27835 0.0 1008289
02:00+10ю4988100 0.5 1008563
05:00+8зюз4996100 4.2 1008568
08:00+8юз378797 4.2 1008451
11:00+12юз476214 0.0 10081474
14:00+15юз464849 0.3 10072091
17:00+16юз574737 0.1 10062041
20:00+12юз368269 1.1 1006469
14 мая, пт
пт1423:00+9юз259398 1.2 1007150
02:00+7юз269131 1.2 1007183
05:00+7ююз389399 0.0 1007331
08:00+8ююз3993100 0.2 1007500
11:00+8ю3695100 1.4 1008493
14:00+10в119398 2.3 1008159
17:00+14сз236858 0.3 10081107
20:00+11зсз388677 1.6 1009440
15 мая, сб
сб1523:00+9зюз229495 0.0 101037
02:00+7ююз2493100 0.0 1009111
05:00+8юз41094100 0.4 1008724
08:00+7ююв41094100 1.0 1006736
11:00+8ю41096100 0.8 1005729
14:00+13зюз7106996 1.0 10051429
17:00+15з611606 1.1 10051734
20:00+13з39680 1.7 10061241
16 мая, вс
вс1623:00+9юз2485100 0.0 1008107
02:00+10юз4119482 0.6 1008537
05:00+8ююз4119793 0.3 1007399
08:00+9юз51091100 0.4 1006743
11:00+12зюз588317 0.8 10061089
14:00+16зюз7105420 1.3 10051862
17:00+15зюз610679 1.4 10031572
20:00+12зюз6128164 3.4 1004835
17 мая, пн
пн1723:00+10юз6138698 0.4 1005877
02:00+10юз71381100 0.4 10061185
05:00+10юз7138674 0.2 10061097
08:00+10юз7137998 0.2 10071186
11:00+13зюз8136197 0.1 10081600
14:00+15з8126084 0.7 10091845
17:00+14зюз712707 1.4 10091702
20:00+12з5118398 2.7 10101053